| Date | Time | Temp. (oF) | Dew Point (oF) | Rel. Hum. (%) | Press. (in.) | Wind Dir. | Wind Speed (mph) | Hourly Rainfall (in.) |
|
|---|---|---|---|---|---|---|---|---|---|
| 1 | 02/10 | 00:00 | 25 | 24 | 98 | 30.00 | ENE | 6 | 0.00 |
| 2 | 02/09 | 23:00 | 25 | 24 | 99 | 29.99 | NE | 8 | 0.02 |
| 3 | 02/09 | 22:00 | 25 | 24 | 98 | 29.98 | NE | 9 | 0.00 |
| 4 | 02/09 | 21:00 | 27 | 26 | 98 | 29.98 | NE | 7 | 0.00 |
| 5 | 02/09 | 20:00 | 27 | 26 | 98 | 29.97 | NE | 6 | 0.00 |
| 6 | 02/09 | 19:00 | 27 | 26 | 98 | 29.96 | ENE | 6 | 0.00 |
| 7 | 02/09 | 18:00 | 28 | 27 | 98 | 29.94 | ENE | 10 | 0.01 |
| 8 | 02/09 | 17:00 | 28 | 27 | 98 | 29.93 | ENE | 5 | 0.01 |
| 9 | 02/09 | 16:00 | 28 | 27 | 98 | 29.92 | E | 7 | 0.00 |
| 10 | 02/09 | 15:00 | 28 | 27 | 98 | 29.90 | ENE | 6 | 0.00 |
| 11 | 02/09 | 14:00 | 29 | 28 | 98 | 29.89 | NE | 12 | 0.00 |
| 12 | 02/09 | 13:00 | 29 | 28 | 97 | 29.91 | ENE | 7 | 0.02 |
| 13 | 02/09 | 12:00 | 29 | 28 | 97 | 29.91 | E | 7 | 0.00 |
| 14 | 02/09 | 11:00 | 30 | 29 | 96 | 29.92 | ENE | 8 | 0.00 |
| 15 | 02/09 | 10:00 | 30 | 29 | 97 | 29.92 | ENE | 11 | 0.00 |
| 16 | 02/09 | 09:00 | 30 | 29 | 97 | 29.90 | ENE | 2 | 0.00 |
| 17 | 02/09 | 08:00 | 30 | 29 | 97 | 29.89 | E | 6 | 0.00 |
| 18 | 02/09 | 07:00 | 31 | 29 | 96 | 29.87 | E | 6 | 0.00 |
| 19 | 02/09 | 06:00 | 32 | 30 | 96 | 29.84 | ESE | 6 | 0.00 |
| 20 | 02/09 | 05:00 | 33 | 31 | 96 | 29.85 | ENE | 2 | 0.00 |
| 21 | 02/09 | 04:00 | 33 | 31 | 96 | 29.83 | ENE | 6 | 0.00 |
| 22 | 02/09 | 03:00 | 33 | 31 | 96 | 29.83 | E | 7 | 0.00 |
| 23 | 02/09 | 02:00 | 34 | 32 | 96 | 29.82 | ENE | 4 | 0.00 |
| 24 | 02/09 | 01:00 | 34 | 32 | 96 | 29.82 | ENE | 8 | 0.00 |